Flag for Canada Weather past 2 weeks in Labrador City, Newfoundland and Labrador, Canada

Now
3 °F

Passing clouds.


Feels Like: -4 °F
Forecast: 1 / 10 °F
Wind: 3 mph from West

Location: Wabush Lake

Current Time: Dec 28, 2014 at 8:31:02 AM

Latest Report: Dec 28, 2014 at 7:00 AM


Visibility: 15 mi

Pressure: 29.72 "Hg

Humidity: 92%

Dew point: 1 °F

Location of Labrador CityLocation

Historic Weather in Labrador City — Graph

°F

Labrador City temperature yesterday

Maximum temperature yesterday: 19 °F (at 12:00 AM)
Minimum temperature yesterday: 14 °F (at 9:00 PM)
Average temperature yesterday: 16 °F

Past Weeks' High & Low Weather Summary

 TemperatureHumidityPressure
High34 °F (Dec 25, 8:00 PM)100% (Dec 13, 7:00 AM)30.49 "Hg (Dec 13, 7:00 AM)
Low-26 °F (Dec 22, 6:00 AM)55% (Dec 18, 2:00 PM)28.73 "Hg (Dec 26, 12:03 AM)
Average8 °F86%29.97 "Hg
* Reported Dec 13 7:00 AM — Dec 28 7:00 AM, Labrador City, Weather by CustomWeather, © 2014

Note: Actual official high and low records may vary slightly from our data, if they occured in-between our weather recording intervals... More about our weather records

Advertising

Labrador City weather history for previous 24 hours

 ConditionsComfort  
Time TempWeatherWind HumidityBarometerVisibility
7:00 AM
Dec 28
3 °FPassing clouds.3 mph92%29.72 "Hg15 mi
6:00 AM5 °FPassing clouds.3 mph85%29.72 "Hg15 mi
5:00 AM7 °FOvercast.7 mph85%29.73 "Hg9 mi
4:00 AM7 °FMostly cloudy.10 mph85%29.76 "Hg9 mi
3:00 AM9 °FPassing clouds.7 mph85%29.77 "Hg9 mi
2:00 AM10 °FLight snow. Passing clouds.15 mph85%29.76 "Hg9 mi
1:00 AM12 °FLight snow. Overcast.13 mph85%29.75 "Hg9 mi
12:00 AM12 °FLight snow. Overcast.13 mph85%29.78 "Hg9 mi
11:00 PM
Dec 27
14 °FLight snow. Overcast.13 mph79%29.79 "Hg9 mi
10:00 PM14 °FLight snow. Mostly cloudy.12 mph85%29.79 "Hg10 mi
9:00 PM14 °FLight snow. Mostly cloudy.22 mph85%29.79 "Hg10 mi
8:00 PM16 °FLight snow. Mostly cloudy.13 mph79%29.81 "Hg10 mi
7:00 PM16 °FLight snow. Overcast.10 mph79%29.80 "Hg10 mi
6:00 PM16 °FLight snow. Overcast.12 mph79%29.79 "Hg10 mi
5:00 PM16 °FLight snow. Partly sunny.9 mph79%29.78 "Hg10 mi
4:00 PM16 °FLight snow. Partly sunny.14 mph79%29.76 "Hg8 mi
3:00 PM16 °FLight snow. Overcast.14 mph79%29.74 "Hg5 mi
2:00 PM16 °FLight snow. Overcast.22 mph86%29.69 "Hg5 mi
1:00 PM16 °FLight snow. Overcast.14 mph79%29.67 "Hg4 mi
12:00 PM16 °FLight snow. Mostly cloudy.18 mph79%29.64 "Hg3 mi
11:00 AM16 °FLight snow. Partly sunny.24 mph79%29.62 "Hg3 mi
10:00 AM16 °FLight snow. Partly sunny.17 mph79%29.60 "Hg5 mi
9:00 AM16 °FLight snow. Overcast.20 mph79%29.58 "Hg3 mi
8:00 AM16 °FLight snow. Mostly cloudy.18 mph79%29.55 "Hg4 mi
Weather by CustomWeather, © 2014

See weather overviewHow to use our weather pages